Hourly Data Report for October 02, 2017

All times are specified in Local Standard Time (LST). Add 1 hour to adjust for Daylight Saving Time where and when it is observed.

SMITHERS
BRITISH COLUMBIA

54°49'31.000" N
127°10'58.000" W
523.00 m
1077499
71950
YYD

Download Data

Hourly Data (October 2017)
Hourly Data Report for October 2, 2017
Temp Definition
°C
Dew Point Temp Definition
°C
Rel Hum Definition
%
Wind Dir Definition
10's deg

Wind Spd Definition
km/h
Visibility Definition
km
Stn Press Definition
kPa
Hmdx Definition


Wind Chill Definition


Weather Definition


TIME
00:00 Legend Double Dagger 1.3 0.3 93   0 16.1 96.86     LegendNANA
01:00 Legend Double Dagger -0.1 -0.2 99   0 16.1 96.92     LegendNANA
02:00 Legend Double Dagger 0.1 0.0 99 35 4 16.1 96.98     LegendNANA
03:00 Legend Double Dagger 0.7 0.3 97   0 16.1 96.99     LegendNANA
04:00 Legend Double Dagger -0.3 -0.6 98   0 16.1 97.05     LegendNANA
05:00 Legend Double Dagger -1.1 -1.1 100   0 16.1 97.12     LegendNANA
06:00 Legend Double Dagger -1.9 -1.9 100 15 4 0.2 97.14   -3 Freezing Fog
07:00 Legend Double Dagger -1.5 -1.5 100 LegendMM 4 0.0 97.21   -3 Freezing Fog
08:00 Legend Double Dagger -0.6 -0.6 100   0 1.2 97.23     Fog
09:00 Legend Double Dagger 1.2 1.2 100 LegendMM 4 8.1 97.25     Fog
10:00 Legend Double Dagger 3.8 2.9 94 13 5 16.1 97.22     LegendNANA
11:00 Legend Double Dagger 7.1 2.9 75 12 5 16.1 97.16     LegendNANA
12:00 Legend Double Dagger 9.5 1.3 56 LegendMM 4 16.1 97.10     LegendNANA
13:00 Legend Double Dagger 10.7 -1.3 43 20 9 16.1 97.05     LegendNANA
14:00 Legend Double Dagger 11.5 -1.5 40 18 8 16.1 96.98     LegendNANA
15:00 Legend Double Dagger 11.9 -0.8 41 16 11 16.1 96.89     LegendNANA
16:00 Legend Double Dagger 12.0 -1.7 39   0 16.1 96.86     LegendNANA
17:00 Legend Double Dagger 7.8 1.5 64 29 5 16.1 96.84     LegendNANA
18:00 Legend Double Dagger 5.1 1.2 76 30 4 16.1 96.82     LegendNANA
19:00 Legend Double Dagger 3.7 2.1 89 29 8 16.1 96.82     LegendNANA
20:00 Legend Double Dagger 2.3 0.0 85 31 5 16.1 96.87     LegendNANA
21:00 Legend Double Dagger 0.8 -0.3 92 LegendMM 4 16.1 96.87     LegendNANA
22:00 Legend Double Dagger 0.2 0.2 100 15 4 6.4 96.85     Fog
23:00 Legend Double Dagger -0.2 -0.5 98 LegendMM 4 16.1 96.87   -1 LegendNANA

Notes on Data Quality.

Legend

  • E = Estimated
  • M = Missing
  • NA = Not Available
  • ‡ = Partner data that is not subject to review by the National Climate Archives
Date modified: